Weather History for KBTA - March, 2014

Change the Weather History Date:

Wednesday, March 26, 2014

  Actual Average (KOMA) Record (KOMA)
Temperature  
Mean Temperature 46 °F 44 °F  
Max Temperature 65 °F 56 °F 86 °F (1907)
Min Temperature 26 °F 32 °F 2 °F (1873)
Degree Days  
Heating Degree Days 20 21  
Month to date heating degree days 690  
Since 1 July heating degree days 5488  
Cooling Degree Days 0 0  
Month to date cooling degree days 0  
Year to date cooling degree days 0  
Moisture  
Dew Point 23 °F    
Average Humidity 46    
Maximum Humidity 84    
Minimum Humidity 28    
Precipitation  
Precipitation 0.00 in 0.07 in 1.42 in (1983)
Month to date precipitation 1.57  
Year to date precipitation 3.14  
Snow  
Snow 0.00 in 0.10 in - ()
Month to date snowfall 3.7  
Since 1 July snowfall 24.9  
Snow Depth -    
Sea Level Pressure  
Sea Level Pressure 29.79 in    
Wind  
Wind Speed 20 mph (SSE)    
Max Wind Speed 45 mph    
Max Gust Speed 61 mph    
Visibility 10 miles    
Events      
T = Trace of Precipitation, MM = Missing Value Source: NWS Daily Summary

Daily Weather History Graph

Daily Weather History Graph

Search for Another Location

Airport or City:

Trip Planner

Search our weather history database for the weather conditions in past years. The results will help you decide how hot, cold, wet, or windy it might be!

Date:

Astronomy

Mar. 26, 2014 Rise Set
Actual Time 7:17 AM CDT 7:43 PM CDT
Civil Twilight 6:49 AM CDT 8:10 PM CDT
Nautical Twilight 6:17 AM CDT 8:43 PM CDT
Astronomical Twilight 5:43 AM CDT 9:17 PM CDT
Moon 4:29 AM CDT (3/26) 3:20 PM CDT (3/26)
Length of Visible Light 13h 21m
Length of Day
12h 25m
Waning Crescent, 21% of the Moon is Illuminated
Mar 26
Waning Crescent
Mar 30
New
Apr 7
First Quarter
Apr 15
Full
Apr 22
Last Quarter

Hourly Weather History & Observations

Time (CDT) Temp. Windchill Dew Point Humidity Pressure Visibility Wind Dir Wind Speed Gust Speed Precip Events Conditions
12:15 AM 26.8 °F 19.3 °F 4.5 °F 39% 30.12 in 10.0 mi ESE 6.9 mph - N/A   Clear
12:35 AM 27.5 °F 21.1 °F 4.1 °F 37% 30.11 in 10.0 mi SE 5.8 mph - N/A   Clear
12:55 AM 28.0 °F 20.8 °F 4.5 °F 37% 30.10 in 10.0 mi SE 6.9 mph - N/A   Scattered Clouds
1:15 AM 27.9 °F 20.6 °F 5.9 °F 39% 30.10 in 10.0 mi SSE 6.9 mph - N/A   Scattered Clouds
1:35 AM 28.4 °F 20.4 °F 4.5 °F 36% 30.09 in 10.0 mi SSE 8.1 mph - N/A   Clear
1:55 AM 28.6 °F 19.9 °F 4.1 °F 35% 30.09 in 10.0 mi SSE 9.2 mph - N/A   Clear
2:15 AM 30.2 °F 20.8 °F 3.7 °F 33% 30.09 in 10.0 mi SSE 11.5 mph 17.3 mph N/A   Clear
2:35 AM 30.0 °F 21.1 °F 4.1 °F 33% 30.08 in 10.0 mi SSE 10.4 mph - N/A   Clear
2:55 AM 29.3 °F 18.6 °F 5.0 °F 36% 30.07 in 10.0 mi SSE 13.8 mph - N/A   Clear
3:15 AM 29.3 °F 19.1 °F 5.7 °F 37% 30.06 in 10.0 mi SSE 12.7 mph - N/A   Clear
3:35 AM 29.3 °F 19.1 °F 5.9 °F 37% 30.05 in 10.0 mi SSE 12.7 mph 18.4 mph N/A   Clear
3:55 AM 29.3 °F 19.1 °F 6.3 °F 38% 30.03 in 10.0 mi SSE 12.7 mph - N/A   Clear
4:15 AM 29.7 °F 19.6 °F 6.8 °F 38% 30.02 in 10.0 mi SSE 12.7 mph - N/A   Clear
4:35 AM 29.3 °F 19.1 °F 7.7 °F 40% 30.01 in 10.0 mi SSE 12.7 mph - N/A   Clear
4:55 AM 29.7 °F 19.6 °F 8.4 °F 41% 30.00 in 10.0 mi SSE 12.7 mph - N/A   Clear
5:15 AM 29.8 °F 19.3 °F 9.0 °F 42% 30.00 in 10.0 mi SSE 13.8 mph - N/A   Clear
5:35 AM 29.8 °F 19.8 °F 9.9 °F 43% 29.99 in 10.0 mi SSE 12.7 mph 17.3 mph N/A   Clear
5:55 AM 30.2 °F 18.9 °F 10.4 °F 44% 29.98 in 10.0 mi SSE 16.1 mph 23.0 mph N/A   Clear
6:15 AM 30.2 °F 18.9 °F 10.9 °F 45% 29.98 in 10.0 mi SSE 16.1 mph - N/A   Clear
6:35 AM 30.9 °F 19.8 °F 11.7 °F 45% 29.97 in 10.0 mi SSE 16.1 mph - N/A   Clear
6:55 AM 31.1 °F 19.7 °F 11.8 °F 45% 29.96 in 10.0 mi SSE 17.3 mph 21.9 mph N/A   Clear
7:15 AM 31.6 °F 20.0 °F 12.0 °F 44% 29.96 in 10.0 mi SSE 18.4 mph 21.9 mph N/A   Clear
7:35 AM 32.0 °F 19.2 °F 12.0 °F 44% 29.95 in 10.0 mi SSE 23.0 mph 27.6 mph N/A   Clear
7:55 AM 32.0 °F 20.1 °F 12.2 °F 44% 29.94 in 10.0 mi SSE 19.6 mph 26.5 mph N/A   Clear
8:15 AM 32.0 °F 19.5 °F 12.6 °F 45% 29.93 in 10.0 mi SSE 21.9 mph 28.8 mph N/A   Clear
8:35 AM 33.1 °F 21.5 °F 13.1 °F 44% 29.92 in 10.0 mi SSE 19.6 mph 27.6 mph N/A   Clear
8:55 AM 34.5 °F 23.1 °F 13.6 °F 42% 29.91 in 10.0 mi SSE 20.7 mph 29.9 mph N/A   Clear
9:15 AM 36.0 °F 24.4 °F 14.2 °F 41% 29.89 in 10.0 mi SSE 23.0 mph 32.2 mph N/A   Clear
9:35 AM 37.9 °F 26.6 °F 15.3 °F 40% 29.88 in 10.0 mi SSE 25.3 mph 41.4 mph N/A   Clear
9:55 AM 39.7 °F 27.6 °F 16.7 °F 39% 29.87 in 10.0 mi SSE 33.4 mph 39.1 mph N/A   Clear
10:15 AM 41.9 °F 30.7 °F 17.6 °F 38% 29.86 in 10.0 mi South 32.2 mph 39.1 mph N/A   Clear
10:35 AM 43.3 °F 32.3 °F 18.7 °F 37% 29.85 in 10.0 mi South 34.5 mph 43.7 mph N/A   Clear
10:55 AM 44.1 °F 34.6 °F 19.0 °F 37% 29.84 in 10.0 mi South 26.5 mph 36.8 mph N/A   Clear
11:15 AM 45.0 °F 35.2 °F 19.4 °F 36% 29.82 in 10.0 mi SSE 29.9 mph 35.7 mph N/A   Clear
11:35 AM 46.8 °F - 19.9 °F 35% 29.80 in 10.0 mi South 27.6 mph 38.0 mph N/A   Clear
11:55 AM 49.5 °F - 21.2 °F 33% 29.78 in 10.0 mi SSE 33.4 mph 42.6 mph N/A   Clear
12:15 PM 51.3 °F - 21.9 °F 32% 29.77 in 10.0 mi SSE 26.5 mph 32.2 mph N/A   Clear
12:35 PM 53.8 °F - 23.0 °F 30% 29.74 in 10.0 mi South 32.2 mph 39.1 mph N/A   Clear
12:55 PM 55.8 °F - 24.8 °F 30% 29.73 in 10.0 mi South 31.1 mph 42.6 mph N/A   Clear
1:15 PM 57.2 °F - 25.7 °F 30% 29.71 in 10.0 mi SSE 28.8 mph 44.9 mph N/A   Clear
1:35 PM 58.1 °F - 26.4 °F 30% 29.69 in 10.0 mi South 35.7 mph 42.6 mph N/A   Clear
1:55 PM 59.9 °F - 27.1 °F 29% 29.68 in 10.0 mi South 29.9 mph 39.1 mph N/A   Clear
2:15 PM 61.2 °F - 28.2 °F 29% 29.66 in 10.0 mi South 28.8 mph 42.6 mph N/A   Clear
2:35 PM 62.8 °F - 29.1 °F 28% 29.64 in 10.0 mi South 33.4 mph 46.0 mph N/A   Clear
2:55 PM 64.4 °F - 30.0 °F 28% 29.63 in 10.0 mi South 31.1 mph 43.7 mph N/A   Clear
3:15 PM 65.8 °F - 31.8 °F 28% 29.61 in 10.0 mi South 38.0 mph 48.3 mph N/A   Clear
3:35 PM 65.3 °F - 32.0 °F 29% 29.60 in 10.0 mi South 35.7 mph 48.3 mph N/A   Scattered Clouds
3:55 PM 64.6 °F - 32.4 °F 30% 29.59 in 10.0 mi South 41.4 mph 48.3 mph N/A   Mostly Cloudy
4:15 PM 62.6 °F - 33.8 °F 34% 29.59 in 7.0 mi South 39.1 mph 54.1 mph N/A   Overcast
4:35 PM 59.9 °F - 36.1 °F 41% 29.59 in 7.0 mi South 41.4 mph 61.0 mph N/A   Overcast
4:55 PM 61.2 °F - 36.5 °F 40% 29.59 in 7.0 mi South 39.1 mph 50.6 mph N/A   Overcast
5:15 PM 58.1 °F - 36.5 °F 44% 29.58 in 10.0 mi South 44.9 mph 52.9 mph N/A   Mostly Cloudy
5:35 PM 56.5 °F - 36.9 °F 48% 29.58 in 10.0 mi South 42.6 mph 52.9 mph N/A   Scattered Clouds
5:55 PM 55.4 °F - 37.6 °F 51% 29.58 in 10.0 mi South 41.4 mph 50.6 mph N/A   Scattered Clouds
6:15 PM 54.3 °F - 37.4 °F 53% 29.58 in 10.0 mi South 40.3 mph 47.2 mph N/A   Mostly Cloudy
6:35 PM 52.7 °F - 38.1 °F 58% 29.58 in 10.0 mi South 38.0 mph 49.5 mph N/A   Overcast
6:55 PM 51.3 °F - 38.5 °F 62% 29.59 in 10.0 mi South 38.0 mph 47.2 mph N/A   Overcast
7:15 PM 50.4 °F - 38.7 °F 64% 29.59 in 10.0 mi South 33.4 mph 42.6 mph N/A   Overcast
7:35 PM 49.6 °F - 38.7 °F 66% 29.59 in 10.0 mi South 35.7 mph 50.6 mph N/A   Overcast
7:55 PM 48.6 °F - 38.5 °F 68% 29.59 in 10.0 mi South 33.4 mph 47.2 mph N/A   Overcast
8:15 PM 48.2 °F - 38.7 °F 70% 29.59 in 10.0 mi South 35.7 mph 47.2 mph N/A   Overcast
8:35 PM 48.0 °F - 38.5 °F 70% 29.60 in 10.0 mi South 28.8 mph 40.3 mph N/A   Overcast
8:55 PM 47.3 °F - 38.7 °F 72% 29.60 in 10.0 mi South 24.2 mph 41.4 mph N/A   Overcast
9:15 PM 47.3 °F - 38.7 °F 72% 29.60 in 10.0 mi South 31.1 mph 48.3 mph N/A   Overcast
9:35 PM 46.8 °F - 38.8 °F 74% 29.60 in 10.0 mi South 29.9 mph 41.4 mph N/A   Overcast
9:55 PM 46.4 °F 36.5 °F 39.0 °F 75% 29.59 in 10.0 mi South 34.5 mph 42.6 mph N/A   Overcast
10:15 PM 45.9 °F 36.1 °F 38.8 °F 76% 29.59 in 10.0 mi South 32.2 mph 41.4 mph N/A   Overcast
10:35 PM 45.5 °F 36.1 °F 38.7 °F 77% 29.58 in 10.0 mi South 28.8 mph 39.1 mph N/A   Overcast
10:55 PM 45.0 °F 34.4 °F 38.8 °F 79% 29.57 in 10.0 mi South 35.7 mph 46.0 mph N/A   Overcast
11:15 PM 44.6 °F 35.5 °F 38.8 °F 80% 29.57 in 10.0 mi South 25.3 mph 36.8 mph N/A   Overcast
11:35 PM 44.1 °F 34.2 °F 39.0 °F 82% 29.57 in 10.0 mi South 28.8 mph 41.4 mph N/A   Overcast
11:55 PM 43.7 °F 34.3 °F 39.2 °F 84% 29.57 in 10.0 mi South 25.3 mph 33.4 mph N/A   Overcast